Location: Unspecified
(48.2082°N, 0.0000°E)
Time: 04:13:36
(UTC+00:00)

Tiros 1 despin weight - Pass Details

Date: 21 June 2019
Orbit: 594 x 643 km, 48.2° (Epoch: 22 July)

Event Time Altitude Azimuth Distance (km) Brightness Sun altitude
Rises 22:03:40 0° 190° (S) 2,846 - -13.6°
Reaches altitude 10° 22:07:16 10° 160° (SSE) 1,937 - -13.9°
Maximum altitude 22:09:04 12° 136° (SE) 1,789 - -14.0°
Drops below altitude 10° 22:10:51 10° 112° (ESE) 1,934 - -14.2°
Exits shadow 22:12:20 - 97° (E) 2,239 ? -14.3°
Sets 22:14:25 0° 83° (E) 2,834 ? -14.4°
